User: anonymous   Login
Location: Unspecified
(0.0000°N, 0.0000°E)
Time: 18:15:17
(UTC+00:00)
Language:

JASON 2 - Orbit

View from above orbital plane
View from above orbital plane
View from above satellite
View from above satellite

Ground track
Ground track

The orbit data is extracted from the following two-line orbital elements,

1 33105U 08032A   18292.51037484 -.00000056  00000-0  24850-4 0  9994
2 33105  66.0405 173.3190 0007661 267.9158 287.0779 12.87627058483581
Epoch (UTC): 19 October 2018 12:14:56
Eccentricity: 0.0007661
inclination: 66.0405°
perigee height: 1305 km
apogee height: 1317 km
right ascension of ascending node: 173.3190°
argument of perigee: 267.9158°
revolutions per day: 12.87627058
mean anomaly at epoch: 287.0779°
orbit number at epoch: 48358

The dashed part of the orbit path shows where the satellite is in the earth's shadow,  

DLR